﻿Дата;Google;AdRiver
2015-09-07;1;0
2015-08-20;1;0
2015-08-14;0;1
2015-08-13;1;0
2015-08-12;1;0
2015-08-10;1;0
2015-08-09;1;0
2015-07-22;1;0
2015-07-21;1;0
2015-07-19;2;0
2015-07-18;1;0
2015-07-16;1;0
2015-07-15;1;0
2015-07-08;3;0
2015-07-07;2;0
2015-07-06;2;0
2015-07-05;1;0
2015-07-04;2;0
2015-07-02;2;0
2015-06-29;2;0
2015-06-28;2;0
2015-06-26;1;0
2015-06-25;1;0
2015-06-24;3;0
2015-06-23;2;0
2015-06-22;1;0
2015-06-21;1;0
2015-06-20;5;0
2015-06-19;4;0
2015-06-18;6;0
2015-06-17;3;0
2015-06-16;6;0
2015-06-15;7;0
2015-06-14;5;0
2015-06-13;4;0
2015-06-12;6;0
2015-06-11;3;0
2015-06-10;5;0
2015-06-09;3;0
2015-06-08;2;0
2015-06-07;5;0
2015-06-06;4;0
2015-06-05;6;0
2015-06-04;6;0
2015-06-03;6;0
2015-06-02;6;0
2015-06-01;3;0
2015-05-31;9;0
2015-05-30;5;0
2015-05-29;5;0
2015-05-28;7;0
2015-05-27;6;0
2015-05-26;5;0
2015-05-25;4;0
2015-05-24;6;0
2015-05-23;3;0
2015-05-22;5;0
2015-05-21;7;0
2015-05-20;17;0
2015-05-19;7;0
2015-05-18;7;0
2015-05-17;8;0
2015-05-16;2;0
2015-05-15;5;0
2015-05-14;6;0
2015-05-13;5;0
2015-05-12;4;0
2015-05-11;4;0
2015-05-10;15;0
2015-05-09;5;0
2015-05-08;10;0
2015-05-07;8;0
2015-05-06;12;0
2015-05-05;8;0
2015-05-04;8;0
2015-05-03;11;0
2015-05-02;4;0
2015-05-01;7;0
2015-04-30;1;0
2015-04-29;13;0
2015-04-28;11;0
2015-04-27;3;0
2015-04-26;7;0
2015-04-25;9;0
2015-04-24;10;0
2015-04-23;6;0
2015-04-22;12;0
2015-04-21;16;0
2015-04-20;5;0
2015-04-19;10;0
2015-04-18;22;0
2015-04-17;8;0
2015-04-16;13;0
2015-04-15;8;0
2015-04-14;12;0
2015-04-13;16;0
2015-04-12;7;0
2015-04-11;7;0
2015-04-10;9;0
2015-04-09;10;0
2015-04-08;10;0
2015-04-07;19;0
2015-04-06;20;0
2015-04-05;14;0
2015-04-04;11;0
2015-04-03;5;0
2015-04-02;10;0
2015-04-01;13;0
2015-03-31;7;0
2015-03-30;22;0
2015-03-29;16;0
2015-03-28;13;0
2015-03-27;8;0
2015-03-26;8;0
2015-03-25;13;0
2015-03-24;16;0
2015-03-23;13;0
2015-03-22;23;0
2015-03-21;19;0
2015-03-20;23;0
2015-03-19;18;0
2015-03-18;19;0
2015-03-17;21;0
2015-03-16;12;0
2015-03-15;24;0
2015-03-14;23;0
2015-03-13;20;0
2015-03-12;16;0
2015-03-11;11;0
2015-03-10;11;0
2015-03-09;8;0
2015-03-08;14;0
2015-03-07;13;0
2015-03-06;6;0
2015-03-05;11;0
2015-03-04;13;0
2015-03-03;15;0
2015-03-02;13;0
2015-03-01;16;0
2015-02-28;11;0
2015-02-27;15;0
2015-02-26;9;0
2015-02-25;8;0
2015-02-24;19;0
2015-02-23;15;0
2015-02-22;14;0
2015-02-21;8;0
2015-02-20;10;0
2015-02-19;7;0
2015-02-18;18;0
2015-02-17;18;0
2015-02-16;21;0
2015-02-15;18;0
2015-02-14;12;0
2015-02-13;12;0
2015-02-12;13;0
2015-02-11;2;0
2015-02-10;3;0
2015-02-09;10;0
2015-02-08;5;0
2015-02-07;2;0
2015-02-06;8;0
2015-02-05;8;0
2015-02-04;6;0
2015-02-03;21;0
2015-02-02;23;0
2015-02-01;66;0
2015-01-31;69;0
2015-01-30;69;0
2015-01-29;75;0
2015-01-28;68;0
2015-01-27;75;0
2015-01-26;68;0
2015-01-25;81;0
2015-01-24;48;0
2015-01-23;43;0
2015-01-22;41;0
2015-01-21;53;0
2015-01-20;50;0
2015-01-19;66;0
2015-01-18;70;0
2015-01-17;65;0
2015-01-16;64;0
2015-01-15;36;0
2015-01-14;43;0
2015-01-13;64;0
2015-01-12;52;0
2015-01-11;48;0
2015-01-10;23;0
2015-01-09;14;0
2015-01-08;16;0
2015-01-07;10;0
2015-01-06;6;0
2015-01-05;11;0
2015-01-04;31;0
2015-01-03;35;0
2015-01-02;25;0
2015-01-01;13;0
2014-12-31;8;0
2014-12-30;9;0
2014-12-29;11;0
2014-12-28;13;0
2014-12-27;12;0
2014-12-26;12;0
2014-12-25;17;0
2014-12-24;26;0
2014-12-23;25;0
2014-12-22;22;0
2014-12-21;27;0
2014-12-20;24;0
2014-12-19;18;0
2014-12-18;12;0
2014-12-17;18;0
2014-12-16;18;0
2014-12-15;20;0
2014-12-14;23;0
2014-12-13;18;0
2014-12-12;18;0
2014-12-11;14;0
2014-12-10;12;0
2014-12-09;16;0
2014-12-08;14;0
2014-12-07;26;0
2014-12-06;12;0
2014-12-05;11;0
2014-12-04;19;0
2014-12-03;14;0
2014-12-02;14;0
2014-12-01;12;0
2014-11-30;15;0
2014-11-29;15;0
2014-11-28;16;0
2014-11-27;7;0
2014-11-26;16;0
2014-11-25;16;0
2014-11-24;6;0
2014-11-23;6;0
2014-11-22;6;0
2014-11-21;9;0
2014-11-20;10;0
2014-11-19;7;0
2014-11-18;6;0
2014-11-17;9;0
2014-11-16;5;0
2014-11-15;2;0
2014-11-14;3;0
2014-11-13;4;0
2014-11-12;4;0
2014-11-11;7;0
2014-11-10;6;0
2014-11-09;10;0
2014-11-08;10;0
2014-11-07;7;0
2014-11-06;7;0
2014-11-05;3;0
2014-11-04;6;0
2014-11-03;7;0
2014-11-02;8;0
2014-11-01;5;0
2014-10-31;7;0
2014-10-30;6;0
2014-10-29;5;0
2014-10-28;1;0
2014-10-27;4;0
2014-10-26;3;0
2014-10-25;4;0
2014-10-24;2;0
2014-10-23;6;0
2014-10-22;1;0
2014-10-21;4;0
2014-10-20;3;0
2014-10-19;2;0
2014-10-18;1;0
2014-10-17;1;0
2014-10-16;2;0
2014-10-15;1;0
2014-10-14;2;0
2014-10-13;2;0
2014-10-11;1;0
2014-10-09;2;0
2014-10-07;1;0
2014-10-06;2;0
2014-10-05;2;0
2014-10-04;1;0
2014-10-03;1;0
2014-10-02;2;0
2014-10-01;2;0
2014-09-30;1;0
2014-09-28;1;0
2014-09-25;2;0
2014-09-22;1;0
2014-09-19;1;0
2014-09-17;2;0
2014-09-15;2;0
2014-09-13;2;0
2014-09-12;3;0
2014-09-11;2;0
2014-09-10;1;0
2014-09-09;3;0
2014-09-08;1;0
2014-09-07;2;0
2014-09-06;3;0
2014-09-05;1;0
2014-09-04;1;0
2014-09-03;2;0
2014-09-02;3;0
2014-09-01;1;0
2014-08-30;1;0
2014-08-29;1;0
2014-08-28;1;0
2014-08-27;2;0
2014-08-25;2;0
2014-08-24;2;0
2014-08-23;1;0
2014-08-21;1;0
2014-08-20;2;0
2014-08-19;2;0
2014-08-18;2;0
2014-08-13;1;0
2014-08-12;2;0
2014-08-08;1;0
2014-08-07;2;0
2014-08-06;3;0
2014-08-05;2;0
2014-08-01;1;0
2014-07-30;2;0
2014-07-29;8;0
2014-07-28;9;0
2014-07-27;7;0
2014-07-26;5;0
2014-07-25;3;0
2014-07-24;9;0
2014-07-23;17;0
2014-07-22;10;0
2014-07-21;15;0
2014-07-20;8;0
2014-07-19;11;0
2014-07-18;18;0
2014-07-17;10;0
2014-07-16;10;0
2014-07-15;9;0
2014-07-14;10;0
2014-07-13;12;0
2014-07-12;20;0
2014-07-11;14;0
2014-07-10;5;0
2014-07-04;12;0
2014-07-03;7;0
2014-07-02;9;0
2014-07-01;11;0
2014-06-30;8;0
2014-06-29;6;0
2014-06-28;3;0
2014-06-27;6;0
2014-06-26;6;0
2014-06-25;11;0
2014-06-24;8;0
2014-06-23;10;0
2014-06-22;13;0
2014-06-21;6;0
2014-06-20;3;0
2014-06-19;12;0
2014-06-18;12;0
2014-06-17;11;0
2014-06-16;14;0
2014-06-15;14;0
2014-06-14;6;0
2014-06-13;8;0
2014-06-12;6;0
2014-06-11;5;0
2014-06-10;13;0
2014-06-09;9;0
2014-06-08;7;0
2014-06-07;3;0
2014-06-06;8;0
2014-06-05;15;0
2014-06-04;9;0
2014-06-03;12;0
2014-06-02;15;0
2014-06-01;13;0
2014-05-31;10;0
2014-05-30;20;0
2014-05-29;14;0
2014-05-28;5;0
2014-05-27;6;0
2014-05-26;7;0
2014-05-25;5;0
2014-05-24;8;0
2014-05-23;10;0
2014-05-22;1;0
2014-04-18;2;0
2014-04-17;4;0
2014-04-16;2;0
2014-04-15;3;0
2014-04-14;3;0
2014-04-13;6;0
2014-04-12;4;0
2014-04-11;2;0
2014-04-10;7;0
2014-04-09;6;0
2014-04-08;2;0
2014-04-07;3;0
2014-04-06;6;0
2014-04-05;8;0
2014-04-04;9;0
2014-04-03;6;0
2014-04-02;10;0
2014-04-01;14;0
2014-03-31;5;0
2014-03-30;2;0
2014-03-29;4;0
2014-03-28;4;0
2014-03-27;5;0
2014-03-26;1;0
2014-03-25;4;0
2014-03-24;2;0
2014-03-22;1;0
2014-03-21;3;0
2014-03-20;1;0
2014-03-19;3;0
2014-03-18;5;0
2014-03-17;7;0
2014-03-16;6;0
2014-03-15;2;0
2014-03-14;1;0
2014-03-13;4;0
2014-03-12;6;0
2014-03-11;7;0
2014-03-10;11;0
2014-03-09;9;0
2014-03-08;2;0
2014-03-07;4;0
2014-03-06;1;0
2014-03-05;4;0
2014-03-04;4;0
2014-03-03;3;0
2014-03-02;3;0
2014-03-01;6;0
2014-02-28;6;0
2014-02-27;8;0
2014-02-26;7;0
2014-02-25;8;0
2014-02-24;5;0
2014-02-23;5;0
2014-02-22;3;0
2014-02-20;10;0
2014-02-19;9;0
2014-02-18;5;0
2014-02-17;10;0
2014-02-16;8;0
2014-02-15;6;0
2014-02-14;5;0
2014-02-13;14;0
2014-02-12;9;0
2014-02-11;17;0
2014-02-10;20;0
2014-02-09;12;0
2014-02-08;14;0
2014-02-07;8;0
2014-02-06;4;0
2014-02-05;1;0
2014-02-04;1;0
2014-02-02;1;0
2014-01-31;1;0
2014-01-29;2;0
2014-01-28;9;0
2014-01-27;8;0
2014-01-26;5;0
2014-01-25;7;0
2014-01-24;5;0
2014-01-23;6;0
2014-01-22;13;0
2014-01-21;11;0
2014-01-20;8;0
2014-01-19;6;0
2014-01-18;9;0
2014-01-17;11;0
2014-01-16;10;0
2014-01-15;16;0
2014-01-14;12;0
2014-01-13;17;0
2014-01-12;20;0
2014-01-11;15;0
2014-01-10;11;0
2014-01-09;12;0
2014-01-08;14;0
2014-01-07;18;0
2014-01-06;1;0
2014-01-05;3;0
2014-01-04;3;0
2014-01-02;2;0
2014-01-01;2;0
2013-12-02;56;0
2013-12-01;80;0
2013-11-30;53;0
2013-11-29;40;0
2013-11-28;33;0
2013-11-27;25;0
2013-11-26;40;0
2013-11-25;28;0
2013-11-24;26;0
2013-11-23;26;0
2013-11-22;31;0
2013-11-21;37;0
2013-11-20;36;0
2013-11-19;31;0
2013-11-18;28;0
2013-11-17;22;0
2013-11-16;18;0
2013-11-15;9;0
2013-11-14;14;0
2013-11-13;12;0
2013-11-12;16;0
2013-11-11;25;0
2013-11-10;30;0
2013-11-09;26;0
2013-11-08;23;0
2013-11-07;25;0
2013-11-06;21;0
2013-11-05;24;0
2013-11-04;17;0
2013-11-03;25;0
2013-11-02;15;0
2013-11-01;14;0
2013-10-31;19;0
2013-10-30;18;0
2013-10-29;15;0
2013-10-28;15;0
2013-10-27;16;0
2013-10-26;14;0
2013-10-25;9;0
2013-10-24;4;0
2013-10-23;10;0
2013-10-22;6;0
2013-10-21;5;0
2013-10-20;2;0
2013-10-19;4;0
2013-10-18;2;0
2013-10-17;5;0
2013-10-16;5;0
2013-10-15;3;0
2013-10-14;8;0
2013-10-12;1;0
2013-10-11;2;0
2013-10-10;3;0
2013-10-09;2;0
2013-10-08;5;0
2013-10-07;4;0
2013-10-06;5;0
2013-10-05;6;0
2013-10-04;4;0
2013-10-03;2;0
2013-10-02;4;0
2013-10-01;4;0
2013-09-24;20;0
2013-09-23;33;0
2013-09-22;36;0
2013-09-21;40;0
2013-09-20;42;0
2013-09-19;46;0
2013-09-18;23;0
2013-09-17;17;0
2013-09-16;16;0
2013-09-15;8;0
2013-09-14;32;0
2013-09-13;40;0
2013-09-12;37;0
2013-09-11;29;0
2013-09-10;43;0
2013-09-09;32;0
2013-09-08;21;0
2013-09-07;35;0
2013-09-06;32;0
2013-09-05;31;0
2013-09-04;22;0
2013-09-03;30;0
2013-09-02;39;0
2013-09-01;22;0
2013-08-31;15;0
2013-08-30;29;0
2013-08-29;46;0
2013-08-28;36;0
2013-08-27;31;0
2013-08-26;16;0
2013-08-25;15;0
2013-08-24;6;0
2013-08-23;5;0
2013-08-22;8;0
2013-08-21;4;0
2013-08-20;4;0
2013-08-19;3;0
2013-08-18;32;0
2013-08-17;24;0
2013-08-16;44;0
2013-08-15;59;0
2013-08-14;40;0
2013-08-13;39;0
2013-08-12;30;0
2013-08-11;30;0
2013-08-10;31;0
2013-08-09;36;0
2013-08-08;44;0
2013-08-07;36;0
2013-08-06;73;0
2013-08-05;152;0
2013-08-04;131;0
2013-08-03;97;0
2013-08-02;139;0
2013-08-01;121;0
2013-07-31;132;0
2013-07-30;58;0
2013-07-29;34;0
2013-07-28;27;0
2013-07-27;14;0
2013-07-26;8;0
2013-07-25;10;0
2013-07-24;13;0
2013-07-23;20;0
2013-07-22;8;0
2013-07-21;19;0
2013-07-20;15;0
2013-07-19;12;0
2013-07-18;18;0
2013-07-17;8;0
2013-07-16;17;0
2013-07-15;8;0
2013-07-14;13;0
2013-07-13;8;0
2013-07-12;12;0
2013-07-11;12;0
2013-07-10;6;0
2013-07-09;2;0
2013-07-08;9;0
2013-07-07;9;0
2013-07-06;5;0
2013-07-05;9;0
2013-07-04;6;0
2013-07-03;10;0
2013-07-02;7;0
2013-07-01;6;0
2013-06-30;1;0
2013-06-29;5;0
2013-06-28;12;0
2013-06-27;15;0
2013-06-26;5;0
2013-06-19;2;0
2013-06-18;1;0
2013-06-17;1;0
2013-06-13;2;0
2013-06-12;3;0
2013-06-11;1;0
2013-06-09;2;0
2013-06-08;3;0
2013-06-07;2;0
2013-06-06;5;0
2013-06-05;1;0
2013-06-04;2;0
2013-06-03;4;0
2013-06-02;5;0
2013-06-01;4;0
2013-05-30;2;0
2013-05-28;1;0
2013-05-27;2;0
2013-05-25;2;0
2013-05-08;1;0
2013-05-07;5;0
2013-05-06;2;0
2013-05-04;2;0
2013-05-03;1;0
2013-05-02;3;0
2013-05-01;1;0
2013-04-30;3;0
2013-04-29;2;0
2013-04-28;1;0
2013-04-27;6;0
2013-04-26;4;0
2013-04-25;4;0
2013-04-24;3;0
2013-04-23;3;0
2013-04-22;4;0
2013-04-21;3;0
2013-04-20;5;0
2013-04-19;2;0
2013-04-18;6;0
2013-04-17;6;0
2013-04-16;2;0
2013-04-15;2;0
2013-04-14;8;0
2013-04-13;4;0
2013-04-12;3;0
2013-04-11;6;0
2013-04-10;3;0
2013-04-09;12;0
2013-04-08;12;0
2013-04-07;20;0
2013-04-06;13;0
2013-04-05;19;0
2013-04-04;53;0
2013-04-03;30;0
2013-04-02;36;0
2013-04-01;23;0
2013-03-31;29;0
2013-03-30;35;0
2013-03-29;32;0
2013-03-28;38;0
2013-03-27;6;0
2013-03-26;2;0
2013-03-25;1;0
2013-03-22;5;0
2013-03-21;23;0
2013-03-20;38;0
2013-03-19;22;0
2013-03-18;31;0
2013-03-17;30;0
2013-03-16;24;0
2013-03-15;33;0
2013-03-14;38;0
2013-03-13;52;0
2013-03-12;54;0
2013-03-11;34;0
2013-03-10;23;0
2013-03-09;43;0
2013-03-08;41;0
2013-03-07;29;0
2013-03-06;23;0
2013-03-05;49;0
2013-03-04;47;0
2013-03-03;51;0
2013-03-02;59;0
2013-03-01;61;0
2013-02-28;54;0
2013-02-27;113;0
2013-02-26;115;0
2013-02-25;73;0
2013-02-24;109;0
2013-02-23;102;0
2013-02-22;71;0
2013-02-21;24;0
2013-02-20;14;0
2013-02-19;33;0
2013-02-18;23;0
2013-02-17;49;0
2013-02-16;27;0
2013-02-15;28;0
2013-02-14;19;0
2013-02-13;33;0
2013-02-12;81;0
2013-02-11;43;0
2013-02-10;52;0
2013-02-09;49;0
2013-02-08;30;0
2013-02-07;37;0
2013-02-06;23;0
2013-02-05;60;0
2013-02-04;59;0
2013-02-03;65;0
2013-02-02;38;0
2013-02-01;54;0
2013-01-31;53;0
2013-01-30;33;0
2013-01-29;33;0
2013-01-28;71;0
2013-01-27;125;0
2013-01-26;97;0
2013-01-25;88;0
2013-01-24;32;0
2013-01-23;21;0
2013-01-22;75;0
2013-01-21;70;0
2013-01-20;19;0
2013-01-19;77;0
2013-01-18;64;0
2013-01-17;44;0
2013-01-16;66;0
2013-01-15;36;0
2013-01-14;64;0
2013-01-13;67;0
2013-01-12;76;0
2013-01-11;79;0
2013-01-10;59;0
2013-01-09;87;0
2013-01-08;52;0
2013-01-07;75;0
2013-01-06;83;0
2013-01-05;84;0
2013-01-04;106;0
2013-01-03;71;0
2013-01-02;91;0
2013-01-01;44;0
2012-12-31;14;0
2012-12-30;55;0
2012-12-29;45;0
2012-12-28;27;0
2012-12-27;43;0
2012-12-26;77;0
2012-12-25;71;0
2012-12-24;44;0
2012-12-23;22;0
2012-12-22;15;0
2012-12-21;9;0
2012-12-19;1;0
2012-12-18;15;0
2012-12-17;14;0
2012-12-16;11;0
2012-12-15;12;0
2012-12-14;34;0
2012-12-13;43;0
2012-12-12;14;0
2012-12-11;14;0
2012-12-10;11;0
2012-12-09;3;0
2012-12-08;14;0
2012-12-07;9;0
2012-12-06;10;0
2012-12-05;16;0
2012-12-04;21;0
2012-12-03;22;0
2012-12-02;11;0
2012-12-01;7;0
2012-11-30;14;0
2012-11-29;33;0
2012-11-28;49;0
2012-11-27;38;0
2012-11-26;45;0
2012-11-25;75;0
2012-11-24;65;0
2012-11-23;38;0
2012-11-22;57;0
2012-11-21;29;0
2012-11-20;5;0
2012-11-19;4;0
2012-11-18;2;0
2012-11-17;1;0
2012-11-03;1;0
2012-08-03;1;0
2012-07-31;2;0
2012-07-29;5;0
2012-07-28;4;0
2012-07-25;1;0
2012-07-21;3;0
2012-07-20;1;0
2012-07-14;1;0
2012-07-13;4;0
2012-07-12;8;0
2012-07-11;5;0
2012-07-10;2;0
2012-07-09;2;0
2012-07-04;2;0
2012-07-03;7;0
2012-07-02;2;0
2012-07-01;3;0
2012-06-30;5;0
2012-06-29;5;0
2012-06-28;13;0
2012-06-27;48;0
2012-06-26;21;0
2012-06-25;15;0
2012-06-24;6;0
2012-06-23;7;0
2012-06-22;7;0
2012-06-21;14;0
2012-06-20;8;0
2012-06-19;7;0
2012-06-18;6;0
2012-06-17;5;0
2012-06-16;1;0
2012-06-15;1;0
2012-06-13;2;0
2012-06-10;3;0
2012-06-09;3;0
2012-06-08;3;0
2012-06-07;2;0
2012-06-06;5;0
2012-06-05;1;0
2012-06-04;1;0
2012-06-03;3;0
2012-06-02;2;0
2012-06-01;2;0
2012-05-31;2;0
2012-05-30;4;0
2012-05-29;1;0
2012-05-27;1;0
2012-05-25;12;0
2012-05-24;12;0
2012-05-23;4;0
2012-02-24;7;0
2012-02-23;9;0
2012-02-22;10;0
2012-02-21;14;0
2012-02-20;18;0
2012-02-19;25;0
2012-02-18;25;0
2012-02-17;111;0
2012-02-16;124;0
2012-02-15;23;0
2012-02-14;4;0
2012-02-13;4;0
2012-02-12;11;0
2012-02-11;1;0
2012-02-10;3;0
2012-02-08;5;0
2012-02-07;11;0
2012-02-06;7;0
2012-02-05;33;0
2012-02-04;22;0
2012-02-03;25;0
2012-02-02;9;0
2012-02-01;25;0
2012-01-31;28;0
2012-01-30;17;0
